Location: Roanoke
(37.2710°N, 79.9420°W)
Time: 04:56:29
(UTC-05:00)

Transit 4A - Visible Passes

Search period start: 20 November 2019 00:00
Search period end: 30 November 2019 00:00
Orbit: 869 x 976 km, 66.8° (Epoch: 19 November)

Date Brightness Start Highest point End Pass type
(mag) Time Alt. Az. Time Alt. Az. Time Alt. Az.
20 Nov 9.9 05:41:30 10° N 05:45:52 21° NE 05:50:09 10° E visible
21 Nov 9.4 05:50:22 10° N 05:55:29 30° NE 06:00:30 10° ESE visible
22 Nov 8.8 05:59:23 10° NNW 06:05:00 44° ENE 06:10:29 10° SE visible
23 Nov 10.4 04:24:57 10° NNE 04:26:53 11° NE 04:28:48 10° ENE visible
23 Nov 8.2 06:08:34 10° NNW 06:14:25 66° ENE 06:20:09 10° SE visible
24 Nov 10.1 04:33:01 10° N 04:36:40 17° NE 04:40:17 10° E visible
24 Nov 7.8 06:17:52 10° NNW 06:23:45 82° WSW 06:29:32 10° SSE visible
25 Nov 9.7 04:42:18 12° N 04:46:21 24° NE 04:50:56 10° ESE visible
25 Nov 8.0 06:27:20 10° NW 06:33:00 53° WSW 06:38:36 10° S visible
25 Nov 9.9 19:45:22 10° S 19:46:30 16° S 19:46:30 16° S visible
26 Nov 9.2 04:52:01 17° N 04:55:55 34° NE 05:01:09 10° ESE visible
26 Nov 8.5 06:36:59 10° NW 06:42:11 34° WSW 06:47:19 10° S visible
26 Nov 9.5 19:54:20 10° SSW 19:56:42 24° SSW 19:56:42 24° SSW visible
27 Nov 8.5 05:01:50 22° N 05:05:24 50° ENE 05:11:00 10° SE visible
27 Nov 9.6 18:20:58 10° SE 18:23:18 14° ESE 18:23:18 14° ESE visible
27 Nov 9.2 20:03:38 10° SSW 20:06:53 33° SW 20:06:53 33° SW visible
28 Nov 10.4 03:28:09 13° NE 03:28:09 13° NE 03:30:05 10° ENE visible
28 Nov 7.8 05:11:43 30° NNW 05:14:47 77° ENE 05:20:34 10° SSE visible
28 Nov 9.0 18:28:32 10° SSE 18:33:20 23° ESE 18:33:27 23° ESE visible
28 Nov 9.2 20:13:12 10° SW 20:17:02 36° WSW 20:17:02 36° WSW visible
29 Nov 10.1 03:38:07 18° ENE 03:38:07 18° ENE 03:41:10 10° E visible
29 Nov 7.7 05:21:42 36° NW 05:24:06 71° WSW 05:29:50 10° SSE visible
29 Nov 8.5 18:36:51 10° S 18:42:29 36° ESE 18:43:32 34° E visible
29 Nov 9.5 20:23:05 10° WSW 20:27:06 31° W 20:27:06 31° W visible
